Location: ??
(35.4627°N, 139.3695°E)
Time: 15:55:00
(UTC+00:00)

Cosmos 1782 - Pass Details

Date: 25 November 2020
Orbit: 537 x 550 km, 82.5° (Epoch: 20 January)

Event Time Altitude Azimuth Distance (km) Brightness Sun altitude
Rises 20:32:47 0° 349° (N) 2,725 6.1 -11.4°
Reaches altitude 10° 20:34:58 10° 347° (NNW) 1,829 5.2 -11.0°
Maximum altitude 20:38:56 64° 266° (W) 613 2.8 -10.2°
Drops below altitude 10° 20:42:54 10° 184° (S) 1,819 5.7 -9.4°
Sets 20:45:04 0° 181° (S) 2,709 6.6 -9.0°
